This is the latest recevied weather packets stored in our database for station/object WB4ZUT. If no packets are shown the sender has not sent any weather packets the latest 1 day(s).
| Time | Temp. | Humidity | Pressure | Rain* | Wind** | Luminosity | Snow |
|---|---|---|---|---|---|---|---|
| 1777989260 | 17.78° C | 74% | 1008.2 hPa | 0 mm | 0.89 m/s, 80° | 90 W/m² | - |
| 1777988957 | 17.78° C | 74% | 1008.3 hPa | 0 mm | 0.89 m/s, 89° | 78 W/m² | - |
| 1777988654 | 17.78° C | 74% | 1008.1 hPa | 0 mm | 0.89 m/s, 110° | 69 W/m² | - |
| 1777988350 | 17.78° C | 74% | 1008.3 hPa | 0 mm | 0.45 m/s, 106° | 58 W/m² | - |
| 1777988047 | 17.78° C | 74% | 1008.3 hPa | 0 mm | 1.34 m/s, 85° | 61 W/m² | - |
| 1777987742 | 17.78° C | 73% | 1008.3 hPa | 0 mm | 1.79 m/s, 150° | 72 W/m² | - |
| 1777987440 | 17.78° C | 74% | 1008.3 hPa | 0 mm | 1.34 m/s, 80° | 66 W/m² | - |
| 1777987137 | 17.78° C | 74% | 1007.9 hPa | 0 mm | 0.45 m/s, 88° | 64 W/m² | - |
| 1777986834 | 17.78° C | 74% | 1008.2 hPa | 0 mm | 0.89 m/s, 166° | 64 W/m² | - |
| 1777986532 | 17.78° C | 75% | 1008.4 hPa | 0 mm | 1.34 m/s, 124° | 77 W/m² | - |
| 1777986230 | 17.78° C | 74% | 1008.1 hPa | 0 mm | 0.89 m/s, 110° | 76 W/m² | - |
| 1777985927 | 17.78° C | 74% | 1008.3 hPa | 0 mm | 1.34 m/s, 160° | 83 W/m² | - |
| 1777985625 | 17.78° C | 75% | 1008.1 hPa | 0 mm | 0.89 m/s, 113° | 93 W/m² | - |
| 1777985321 | 17.78° C | 75% | 1008.1 hPa | 0 mm | 0.45 m/s, 84° | 85 W/m² | - |
| 1777985017 | 17.78° C | 75% | 1007.8 hPa | 0 mm | 0.45 m/s, 82° | 77 W/m² | - |
| 1777984713 | 17.78° C | 74% | 1007.8 hPa | 0 mm | 0 m/s | 71 W/m² | - |
| 1777984410 | 17.78° C | 74% | 1008.2 hPa | 0 mm | 0.45 m/s, 83° | 65 W/m² | - |
| 1777984106 | 17.78° C | 74% | 1007.9 hPa | 0 mm | 1.34 m/s, 109° | 61 W/m² | - |
| 1777983804 | 17.78° C | 74% | 1007.8 hPa | 0 mm | 0.45 m/s, 125° | 58 W/m² | - |
| 1777983500 | 17.78° C | 74% | 1008.2 hPa | 0 mm | 0.45 m/s, 86° | 51 W/m² | - |
| 1777983198 | 17.78° C | 74% | 1008.1 hPa | 0 mm | 0.89 m/s, 92° | 45 W/m² | - |
| 1777982893 | 17.78° C | 73% | 1008.1 hPa | 0 mm | 0.89 m/s, 98° | 35 W/m² | - |
| 1777982589 | 17.78° C | 74% | 1008.1 hPa | 0 mm | 0.45 m/s, 87° | 26 W/m² | - |
| 1777982288 | 17.22° C | 76% | 1008.2 hPa | 0 mm | 0.45 m/s, 94° | 23 W/m² | - |
| 1777981986 | 17.22° C | 76% | 1008.1 hPa | 0 mm | 0 m/s | 20 W/m² | - |
* Rain latest hour (hover to see other rain measurements)
** Current wind speed in m/s (hover to see current wind gust speed)